Погода в Бесни

Турция     37°41′38″N   37°51′42″E
темп.,
°C
ветер,
м/с
пор.,
м/с
влажн.,
%
обл.,
%
осадки,
мм/ч
давл.,
гПа
погр.,
м
13 мая, чт
чт1300:00+17ссз11280 0.0 100911
03:00+15ссз11300 0.0 100911
06:00+15всв11310 0.0 101011
09:00+22юв22200 0.0 1011618
12:00+25ю35140 0.0 10111828
15:00+27юз581698 0.0 10092801
18:00+25зюз451944 0.0 10091019
21:00+20зсз22270 0.0 101111
14 мая, пт
пт1400:00+17сз22290 0.0 101111
03:00+16ссз11320 0.0 101111
06:00+16с11350 0.0 101211
09:00+23вюв22180 0.0 1012681
12:00+27ю45100 0.0 10121806
15:00+28ююз54110 0.0 10102144
18:00+27ююз32130 0.0 10091250
21:00+20сз33295 0.0 101015
15 мая, сб
сб1500:00+19ссз22285 0.0 101011
03:00+18ссз22270 0.0 100911
06:00+17ссз22290 0.0 101011
09:00+25ссз11210 0.0 1009549
12:00+29юв33120 0.0 10082565
15:00+30юв43100 0.0 10072818
18:00+28юв33130 0.0 10061318
21:00+22сз22250 0.0 100611
16 мая, вс
вс1600:00+20сз22340 0.0 100611
03:00+18вюв11335 0.0 100511
06:00+17вюв223593 0.0 100611
09:00+22вюв3336100 0.0 1006499
12:00+25юв553218 0.0 10061551
15:00+27юз67275 0.0 10042372
18:00+24юз45285 0.0 1004811
21:00+18з33495 0.0 100620
17 мая, пн
пн1700:00+16зсз3360100 0.0 100737
03:00+15з2254100 0.0 100713
06:00+14сз015614 0.0 100710
09:00+19ю11400 0.0 1008813
12:00+23ююз65220 0.0 10072340
15:00+24юз66250 0.0 10052222
18:00+23зсз67325 0.0 10051834
21:00+19ссз813380 0.0 1009394